Flagstaff, AZ

11:20 AM MST on June 26, 2017 (GMT -0700)
Flagstaff Pulliam

Weather History for KFLG - February, 2012

Change the Weather History Date:

Wednesday, February 29, 2012

  Actual Average Record
Temperature  
Mean Temperature 25 °F 34 °F  
Max Temperature 42 °F 47 °F 63 °F (2016)
Min Temperature 8 °F 21 °F -3 °F (1996)
Degree Days  
Heating Degree Days 40 31  
Month to date heating degree days 954 952  
Since 1 July heating degree days 4690 4870  
Cooling Degree Days 0 0  
Month to date cooling degree days 0 0  
Year to date cooling degree days 0 0  
Moisture  
Dew Point 13 °F    
Average Humidity 57    
Maximum Humidity 92    
Minimum Humidity 22    
Precipitation  
Precipitation 0.00 in 0.08 in 0.73 in (1960)
Month to date precipitation 0.99 2.16  
Year to date precipitation 1.41 4.21  
Snow  
Snow 0.00 in 0.70 in 6.40 in (1960)
Month to date snowfall 15.9 20.9  
Since 1 July snowfall 66.1 73.2  
Snow Depth 2.00 in    
Sea Level Pressure  
Sea Level Pressure 30.15 in    
Wind  
Wind Speed 9 mph (WSW)    
Max Wind Speed 24 mph    
Max Gust Speed 35 mph    
Visibility 10 miles    
Events      
T = Trace of Precipitation, MM = Missing Value Source: NWS Daily Summary

Daily Weather History Graph

Daily Weather History Graph

Search for Another Location

Airport or City:

Trip Planner

Search our weather history database for the weather conditions in past years. The results will help you decide how hot, cold, wet, or windy it might be!

Date:

Astronomy

Feb. 29, 2012 Rise Set
Actual Time 6:56 AM MST 6:21 PM MST
Civil Twilight 6:31 AM MST 6:47 PM MST
Nautical Twilight 6:01 AM MST 7:16 PM MST
Astronomical Twilight 5:32 AM MST 7:46 PM MST
Moon 11:07 AM MST (2/29) 12:55 AM MST (2/29)
Length of Visible Light 12h 16m
Length of Day
11h 25m
Waxing Crescent, 48% of the Moon is Illuminated
Feb 29
Waxing Crescent
Feb 29
First Quarter
Mar 8
Full
Mar 14
Last Quarter
Mar 22
New

Hourly Weather History & Observations

Time (MST) Temp. Windchill Dew Point Humidity Pressure Visibility Wind Dir Wind Speed Gust Speed Precip Events Conditions
12:57 AM 15.1 °F 9.4 °F 12.0 °F 88% 30.24 in 10.0 mi WSW 3.5 mph - N/A   Clear
1:57 AM 12.0 °F 5.9 °F 10.0 °F 92% 30.25 in 10.0 mi West 3.5 mph - N/A   Clear
2:57 AM 12.0 °F - 9.0 °F 88% 30.23 in 10.0 mi Calm Calm - N/A   Clear
3:57 AM 9.0 °F - 6.1 °F 88% 30.23 in 10.0 mi Calm Calm - N/A   Clear
4:57 AM 9.0 °F - 6.1 °F 88% 30.22 in 10.0 mi Calm Calm - N/A   Clear
5:57 AM 10.9 °F - 8.1 °F 88% 30.21 in 10.0 mi Calm Calm - N/A   Clear
6:57 AM 10.0 °F - 6.1 °F 84% 30.24 in 10.0 mi Calm Calm - N/A   Clear
7:57 AM 14.0 °F 8.2 °F 10.9 °F 88% 30.24 in 10.0 mi NW 3.5 mph - N/A   Clear
8:57 AM 27.0 °F 23.0 °F 21.9 °F 81% 30.19 in 10.0 mi SW 3.5 mph - N/A   Clear
9:57 AM 30.0 °F 20.5 °F 18.0 °F 61% 30.19 in 10.0 mi SW 11.5 mph - N/A   Clear
10:57 AM 35.1 °F 26.9 °F 14.0 °F 42% 30.17 in 10.0 mi SSW 11.5 mph - N/A   Clear
11:57 AM 39.9 °F 31.1 °F 3.0 °F 21% 30.15 in 10.0 mi WSW 17.3 mph 24.2 mph N/A   Clear
12:57 PM 41.0 °F 32.8 °F 10.9 °F 29% 30.12 in 10.0 mi SW 16.1 mph 21.9 mph N/A   Clear
1:57 PM 42.1 °F 33.1 °F 10.0 °F 27% 30.10 in 10.0 mi SW 20.7 mph 27.6 mph N/A   Clear
2:57 PM 42.1 °F 34.2 °F 12.9 °F 31% 30.09 in 10.0 mi WSW 16.1 mph 27.6 mph N/A   Clear
3:57 PM 41.0 °F 31.6 °F 14.0 °F 33% 30.10 in 10.0 mi WSW 20.7 mph 34.5 mph N/A   Clear
4:57 PM 39.9 °F 30.2 °F 18.0 °F 41% 30.10 in 10.0 mi SW 20.7 mph 28.8 mph N/A   Clear
5:57 PM 37.9 °F 31.5 °F 18.0 °F 45% 30.10 in 10.0 mi WSW 9.2 mph - N/A   Clear
6:57 PM 36.0 °F 28.5 °F 17.1 °F 46% 30.12 in 10.0 mi WSW 10.4 mph 18.4 mph N/A   Clear
7:57 PM 35.1 °F 25.5 °F 18.0 °F 50% 30.10 in 10.0 mi WSW 15.0 mph 23.0 mph N/A   Clear
8:57 PM 33.1 °F 26.9 °F 18.0 °F 54% 30.05 in 10.0 mi WSW 6.9 mph - N/A   Clear
9:57 PM 28.9 °F 21.9 °F 18.0 °F 64% 30.05 in 10.0 mi SSW 6.9 mph - N/A   Clear
10:57 PM 28.0 °F 21.7 °F 17.1 °F 63% 30.04 in 10.0 mi SSW 5.8 mph - N/A   Clear
11:57 PM 27.0 °F 20.5 °F 17.1 °F 66% 30.00 in 10.0 mi WSW 5.8 mph - N/A   Clear